Location: Nians�bougou
(13.2321°N, 4.9818°W)
Time: 17:13:41
(UTC+00:00)

ALOS - Visible Passes

Search period start: 14 July 2020 00:00
Search period end: 24 July 2020 00:00
Orbit: 683 x 686 km, 97.8° (Epoch: 14 July)

Date Brightness Start Highest point End Pass type
(mag) Time Alt. Az. Time Alt. Az. Time Alt. Az.
14 Jul 3.1 04:35:44 10° NNE 04:40:14 49° E 04:44:44 10° S visible
15 Jul 2.5 05:12:48 10° N 05:17:18 52° WNW 05:21:50 10° SSW visible
16 Jul 4.3 04:13:23 10° NE 04:17:10 25° E 04:20:57 10° SSE visible
17 Jul 2.4 04:49:38 10° NNE 04:54:17 78° E 04:58:57 10° S visible
18 Jul 5.0 03:52:09 10° ENE 03:54:04 12° E 03:55:59 10° ESE visible
18 Jul 3.0 05:27:10 10° NNW 05:31:20 33° WNW 05:35:31 10° SW visible
19 Jul 3.6 04:26:56 10° NNE 04:31:15 38° E 04:35:34 10° SSE visible
20 Jul 2.2 05:03:43 10° N 05:08:20 68° WNW 05:12:58 10° SSW visible
21 Jul 4.7 04:04:51 10° NE 04:08:10 19° E 04:11:29 10° SE visible
22 Jul 2.7 04:40:43 10° NNE 04:45:19 60° E 04:49:54 10° S visible
23 Jul 2.7 05:17:59 10° N 05:22:22 43° WNW 05:26:47 10° SSW visible
